Regional Weather Roundup
Issued by NWS Jackson, KY

Home | Current Version | Previous Version | Text Only | Print | Product List | Glossary Off
Versions: 1 2 3 4 5 6 7 8 9 10 11 12 13 14 15 16 17 18 19 20 21 22 23 24 25 26 27 28 29 30 31 32 33 34 35 36 37 38 39 40 41 42 43 44 45 46 47 48 49 50

450
ASUS43 KJKL 162210
RWRJKL

EAST KENTUCKY HOURLY WEATHER ROUNDUP
NATIONAL WEATHER SERVICE JACKSON KY
500 PM EST SAT DEC 16 2017

NOTE: "FAIR" INDICATES FEW OR NO CLOUDS BELOW 12,000 FEET WITH
NO SIGNIFICANT WEATHER AND/OR OBSTRUCTIONS TO VISIBILITY.

* THESE REPORTS ARE NOT UNDER NWS QUALITY CONTROL AND MAY NOT
  REPORT WEATHER SUCH AS PRECIPITATION AND FOG.

KYZ079-080-083-085-087-088-110-112-115-119-120-162300
...EASTERN KENTUCKY...

CITY           SKY/WX    TMP DP  RH WIND       PRES   REMARKS
JACKSON        CLEAR     47  26  44 SW3       30.14R
LONDON         CLEAR     48  26  42 SW5       30.16R
SOMERSET*      CLEAR     43  28  56 W9        30.18S
MONTICELLO*    CLEAR     44  29  55 W14       30.19R
WILLIAMSBURG*  CLEAR     46  27  46 S5        30.17S
MIDDLESBORO*   CLEAR     44  28  52 S6        30.19S
HARLAN APT*    CLEAR     43  27  52 CALM      30.17S
PIKE CO APT*     N/A     46  26  45 SW6       30.14R
BIG SANDY APT* CLEAR     48  26  42 W8        30.14R
MOREHEAD APT*  CLEAR     48  27  43 SW10G18   30.13R
$$

KYZ035-036-041-042-044-050-067-078-099-162300
...CENTRAL KENTUCKY...

CITY           SKY/WX    TMP DP  RH WIND       PRES   REMARKS
MT STERLING*   CLEAR     46  30  53 W12G17    30.14R
FLEMING/MASON* CLEAR     45  28  52 SW8       30.12R
DANVILLE*      CLEAR     46  28  49 SW8       30.15R
LEXINGTON      CLEAR     47  29  49 SW13      30.11S
FRANKFORT      CLEAR     48  26  42 SW8       30.10R
LOUISVILLE     MOCLDY    51  28  41 SW12      30.10R
LEBANON*         N/A     46  28  49 S10       30.14R
GLASGOW*       CLEAR     47  29  50 SW7       30.16R
BOWLING GREEN  CLEAR     50  29  44 SW7       30.15R
$$

KYZ091>093-OHZ055-061-077-WVZ005-015-034-035-042-162300
...SOUTHERN OHIO/WEST VIRGINIA...

CITY           SKY/WX    TMP DP  RH WIND       PRES   REMARKS
COVINGTON      PTCLDY    48  27  44 SW12      30.06R
COLUMBUS       CLEAR     46  28  49 S8        30.03R
DAYTON         CLEAR     45  28  51 SW16      30.02R
WILMINGTON     CLEAR     44  28  53 SW12      30.04R
HUNTINGTON     CLEAR     49  25  39 SW7       30.11R
CHARLESTON     CLEAR     47  24  40 SW8       30.11R
PINEVILLE*     CLEAR     38  28  66 MISG      30.18R
BECKLEY        CLEAR     40  22  48 SW7       30.11R
BLUEFIELD      CLEAR     37  20  50 W9        30.12R WCI  30
LOGAN CO APT*    N/A     46  25  42 CALM      30.12R
$$

VAZ002-007-008-TNZ017-027-036-066-071-162300
...SOUTHWEST VIRGINIA/EAST TENNESSEE...

CITY           SKY/WX    TMP DP  RH WIND       PRES   REMARKS
WISE*          CLEAR     37  27  65 CALM      30.16R
JONESVILLE*      N/A     45  28  53 CALM      30.21S
ABINGDON*      CLEAR     41  26  54 W6        30.18R
BRISTOL        MOCLDY    42  27  55 SW7       30.20R
MORRISTOWN*    CLEAR     45  27  49 W6G12     30.19S
SEVIERVILLE*   CLEAR     45  28  53 CALM      30.20S
KNOXVILLE      CLOUDY    44  32  62 SW7       30.20S
LAFOLLETTE*    CLEAR     45  28  53 CALM      30.22S
OAK RIDGE      CLOUDY    46  29  51 SW3       30.22R
CROSSVILLE     CLOUDY    42  27  55 S6        30.18R
NASHVILLE      CLOUDY    50  28  42 S10       30.18R
$$

...KEY TO REMARKS...
VSB - VISIBILITY IN MILES
WCI - WIND CHILL INDEX
HX  - HEAT INDEX

$$




USA.gov is the U.S. government's official web portal to all federal, state and local government web resources and services.